THORAD DELTA 1 DEB, 42597

Orbit data source: Space-Track

THORAD DELTA 1 DEB, 42597 is space debris in LEO originally from a launch on Fri, 15 Nov 1974 UTC launched from the Air Force Western Test Range (AFWTR). Debris objects in space refer to the collection of defunct objects orbiting the Earth. Examples of debris include non-operational satellites, rocket bodies, and fragments generated from explosions, collisions, or faulty payload assembly.

Loading next visibility...
THORAD DELTA 1 DEB details
Identifier
42597, 1974-089FN
Orbit
LEO
Last TLE update17 hours ago
Origin
Flag of USGSFC (US)
ManufacturerUnknown
MissionSpacecraft
Bus & MotorUnknown
MassUnknown
Launch date (UTC)
1974-11-15 (50 years ago)
Launch vehicleUnknown
Launch site
Air Force Western Test Range (AFWTR)
Object type
Payload
Rocket body
Debris
Shape & HBRUnknown
Radar Cross SectionSmall (<0.1 m²)

Expand to show TLE details & history

TLE from 17 hours ago
0 THORAD DELTA 1 DEB
1 42597U 74089FN  24339.69958177  .00000519  00000-0  26596-2 0  9993
2 42597 101.4929 316.6932 0192248  95.4369 266.8675 12.69287682511397
Epoch: 2024-12-04T16:47Z
Definitive object data (Epoch: 2024-12-04T16:47:23.864Z)
Latitude-0.00011°
Longitude-9.14719°
Altitude1,398.466 km
Speed7.156 km/s
True Right ascension21h 06m 46s
True Declination0° 00' 00"
Sunlit
Object was in daylight at TLE epoch
Visualization TLE readout
Latitude57.59861°
Longitude-27.01447°
Altitude1,270.557 km
Speed7.283 km/s
Apparent Right ascension20h 00m 54s
Apparent Declination14° 42' 41"
Sunlit
Object is in daylight
Visualization observer readout
Local Sidereal Time08:05:37
Azimuth1.395° NNE
Elevation-35.362°
Doppler factor1
Orbital elements
Apogee altitude1,531.542 km
Perigee altitude1,233.154 km
Semi-major axis7,760.485 km
Eccentricity0.0192248
Inclination101.4929°
RAAN316.6932°
Arg. of periapsis95.4369°
True anomaly264.67121°
Mean anomaly266.8675°
Eccentric anomaly265.769°
Mean motion3.17475 °/min
BSTAR0.0026596
Orbital period113.39 mins
Loading maneuver chart data...

THORAD DELTA 1 DEB Visibility forecast

Observer location: undefined°, undefined

Span
Click to sort rows by Start time (UTC) header in descending order
Start Az.
Max El. time (UTC)
Max El. Az.
Max El.
End time (UTC)
End Az.
11 mins2024-12-05 10:27:16.791Z44.837° NE2024-12-05 10:32:16.791Z93.181° ESE24.997°2024-12-05 10:38:16.791Z150.237° SSE
13 mins2024-12-05 12:18:16.791Z6.221° NNE2024-12-05 12:24:16.791Z294.85° NW39.693°2024-12-05 12:31:16.791Z218.926° SW
11 mins2024-12-05 21:19:16.791Z114.123° SE2024-12-05 21:24:16.791Z59.551° ENE29.46°2024-12-05 21:30:16.791Z1.32° NNE
13 mins2024-12-05 23:09:16.791Z188.689° SSW2024-12-05 23:15:16.791Z254.753° W36.751°2024-12-05 23:22:16.791Z330.859° NNW
|